Location: Bonaustraße
(48.4603°N, 11.9280°E)
Time: 06:11:33
(UTC+02:00)

STRAND 1 - Pass Details

Date: 01 August 2021
Orbit: 768 x 781 km, 98.4° (Epoch: 26 September)

Event Time Altitude Azimuth Distance (km) Brightness Sun altitude
Rises 21:30:32 0° 7° (N) 3,256 ? -6.6°
Reaches altitude 10° 21:33:00 10° 359° (N) 2,323 ? -6.9°
Maximum altitude 21:37:37 36° 295° (WNW) 1,210 ? -7.5°
Drops below altitude 10° 21:42:13 10° 230° (SW) 2,306 ? -8.1°
Sets 21:44:40 0° 222° (SW) 3,228 ? -8.4°
